Topeka, KS

1:48 PM CDT on August 25, 2019 (GMT -0500)
Billard Municipal

Weather History for KTOP - July, 2019

Change the Weather History Date:

Sunday, July 21, 2019

  Actual Average Record
Temperature  
Mean Temperature 79 °F 79 °F  
Max Temperature 86 °F 90 °F 107 °F (1934)
Min Temperature 71 °F 69 °F 47 °F (1970)
Degree Days  
Heating Degree Days 0 0  
Month to date heating degree days 0 0  
Since 1 June heating degree days 0 8  
Since 1 July heating degree days 0 0  
Cooling Degree Days 14 14  
Month to date cooling degree days 345 289  
Year to date cooling degree days 772 699  
Since 1 June cooling degree days 660 573  
Growing Degree Days 28 (Base 50)    
Moisture  
Dew Point 71 °F    
Average Humidity 77    
Maximum Humidity 93    
Minimum Humidity 61    
Precipitation  
Precipitation 0.44 in 0.12 in 2.27 in (1990)
Month to date precipitation 2.29 2.70  
Year to date precipitation 27.01 21.21  
Snow  
Snow 0.00 in 0.00 in 0.00 in ()
Month to date snowfall 0.0 0.0  
Year to date snowfall 18.5 11.3  
Since 1 July snowfall 0.0 0.0  
Snow Depth 0.00 in    
Sea Level Pressure  
Sea Level Pressure 29.96 in    
Wind  
Wind Speed 12 mph (NE)    
Max Wind Speed 25 mph    
Max Gust Speed 40 mph    
Visibility 9 miles    
Events Rain , Thunderstorm    
T = Trace of Precipitation, MM = Missing Value Source: NWS Daily Summary

Daily Weather History Graph

Daily Weather History Graph

Search for Another Location

Airport or City:

Astronomy

Jul. 21, 2019 Rise Set
Actual Time 6:13 AM CDT 8:43 PM CDT
Civil Twilight 5:42 AM CDT 9:14 PM CDT
Nautical Twilight 5:04 AM CDT 9:52 PM CDT
Astronomical Twilight 4:21 AM CDT 10:34 PM CDT
Moon 11:40 PM CDT (7/21) 10:33 AM CDT (7/21)
Length of Visible Light 15h 31m
Length of Day
14h 30m
Waning Gibbous, 80% of the Moon is Illuminated
Jul 21
Waning Gibbous
Jul 24
Last Quarter
Jul 31
New
Aug 7
First Quarter
Aug 15
Full

Hourly Weather History & Observations

Time (CDT) Temp. Heat Index Dew Point Humidity Pressure Visibility Wind Dir Wind Speed Gust Speed Precip Events Conditions
12:53 AM 86.0 °F 93.8 °F 73.9 °F 67% 29.80 in 10.0 mi South 8.1 mph - N/A   Clear
1:53 AM 84.9 °F 92.1 °F 73.9 °F 69% 29.83 in 10.0 mi SSE 9.2 mph - N/A   Clear
2:21 AM 84.0 °F 91.9 °F 75.0 °F 74% 29.89 in 10.0 mi East 16.1 mph 31.1 mph N/A   Mostly Cloudy
2:53 AM 82.0 °F 87.4 °F 73.0 °F 74% 29.90 in 10.0 mi East 21.9 mph 32.2 mph N/A   Overcast
3:26 AM 75.9 °F - 69.1 °F 79% 29.97 in 10.0 mi East 19.6 mph 31.1 mph N/A Thunderstorm Overcast
3:53 AM 75.0 °F - 70.0 °F 84% 29.94 in 10.0 mi East 18.4 mph 31.1 mph 0.00 in Thunderstorm Overcast
4:04 AM 75.0 °F - 70.0 °F 84% 29.96 in 10.0 mi ESE 25.3 mph 34.5 mph N/A   Overcast
4:53 AM 73.9 °F - 70.0 °F 87% 29.94 in 10.0 mi East 16.1 mph 26.5 mph 0.00 in   Overcast
5:03 AM 73.0 °F - 69.1 °F 87% 29.97 in 10.0 mi ESE 12.7 mph - N/A Thunderstorm Overcast
5:19 AM 73.0 °F - 69.1 °F 87% 29.97 in 10.0 mi ESE 12.7 mph 26.5 mph 0.00 in   Overcast
5:53 AM 73.0 °F - 69.1 °F 87% 29.95 in 10.0 mi ESE 15.0 mph 20.7 mph 0.00 in   Partly Cloudy
6:53 AM 73.0 °F - 70.0 °F 90% 29.99 in 10.0 mi NE 17.3 mph 25.3 mph 0.00 in   Overcast
7:53 AM 73.0 °F - 70.0 °F 90% 29.95 in 10.0 mi East 9.2 mph - N/A   Overcast
8:53 AM 77.0 °F - 71.1 °F 82% 29.93 in 10.0 mi ESE 5.8 mph - N/A   Scattered Clouds
9:53 AM 80.1 °F 83.8 °F 72.0 °F 76% 29.91 in 10.0 mi SE 5.8 mph - N/A   Scattered Clouds
10:53 AM 84.0 °F 89.6 °F 72.0 °F 67% 29.94 in 10.0 mi WNW 9.2 mph - N/A   Clear
11:53 AM 84.0 °F 88.4 °F 70.0 °F 63% 29.94 in 10.0 mi NNW 9.2 mph - N/A   Mostly Cloudy
12:53 PM 82.0 °F 85.9 °F 70.0 °F 67% 29.94 in 10.0 mi NNE 9.2 mph - N/A   Overcast
1:53 PM 82.0 °F 86.7 °F 72.0 °F 71% 29.92 in 10.0 mi ENE 16.1 mph - N/A   Scattered Clouds
2:02 PM 81.0 °F 85.2 °F 72.0 °F 74% 29.95 in 10.0 mi ENE 12.7 mph - N/A   Mostly Cloudy
2:36 PM 82.0 °F 87.4 °F 73.0 °F 74% 29.94 in 10.0 mi East 10.4 mph - N/A   Overcast
2:51 PM 82.4 °F 87.2 °F 71.6 °F 70% 29.95 in 10.0 mi East 15.0 mph - N/A   Overcast
2:53 PM 82.0 °F 86.7 °F 72.0 °F 71% 29.92 in 10.0 mi East 13.8 mph - N/A   Overcast
3:03 PM 82.0 °F 86.7 °F 72.0 °F 71% 29.96 in 10.0 mi East 13.8 mph - N/A   Overcast
3:53 PM 81.0 °F 85.8 °F 73.0 °F 77% 29.94 in 10.0 mi ENE 5.8 mph - N/A   Overcast
4:22 PM 81.0 °F 85.8 °F 73.0 °F 77% 29.96 in 10.0 mi NE 10.4 mph - N/A   Overcast
4:53 PM 80.1 °F 84.2 °F 73.0 °F 79% 29.94 in 10.0 mi NNE 9.2 mph - N/A   Overcast
5:53 PM 78.1 °F - 73.0 °F 84% 29.93 in 8.0 mi North 10.4 mph - 0.00 in Rain Light Rain
6:53 PM 77.0 °F - 73.0 °F 88% 29.94 in 10.0 mi NNE 11.5 mph - 0.00 in   Overcast
7:25 PM 75.0 °F - 72.0 °F 90% 29.96 in 10.0 mi NNE 13.8 mph 24.2 mph N/A   Overcast
7:38 PM 75.0 °F - 72.0 °F 90% 29.96 in 10.0 mi NNE 15.0 mph 21.9 mph N/A Thunderstorm Overcast
7:49 PM 75.2 °F - 71.6 °F 89% 29.98 in 10.0 mi NNE 17.3 mph 28.8 mph N/A Thunderstorm Thunderstorm
7:53 PM 75.0 °F - 72.0 °F 90% 29.96 in 10.0 mi North 15.0 mph 28.8 mph 0.00 in Rain , Thunderstorm Light Thunderstorms and Rain
8:06 PM 73.0 °F - 72.0 °F 96% 30.00 in 1.8 mi NNW 12.7 mph 24.2 mph 0.06 in Rain , Thunderstorm Heavy Thunderstorms and Rain
8:21 PM 73.0 °F - 72.0 °F 96% 30.00 in 1.5 mi NNW 11.5 mph - 0.24 in Rain Heavy Rain
8:29 PM 72.0 °F - 72.0 °F 100% 30.00 in 1.2 mi North 16.1 mph 31.1 mph 0.35 in Rain Heavy Rain
8:34 PM 72.0 °F - 72.0 °F 100% 29.99 in 2.0 mi North 18.4 mph 28.8 mph 0.37 in Rain Light Rain
8:40 PM 72.0 °F - 71.1 °F 97% 29.99 in 9.0 mi North 17.3 mph 28.8 mph 0.37 in Rain Light Rain
8:53 PM 72.0 °F - 70.0 °F 93% 29.98 in 8.0 mi North 18.4 mph 29.9 mph 0.37 in Rain Light Rain
9:53 PM 72.0 °F - 70.0 °F 93% 30.01 in 10.0 mi NNE 6.9 mph - 0.07 in Rain Light Rain
10:30 PM 72.0 °F - 71.1 °F 97% 30.03 in 10.0 mi North 6.9 mph - 0.00 in Rain Light Rain
10:44 PM 72.0 °F - 71.1 °F 97% 30.03 in 10.0 mi North 8.1 mph - 0.00 in   Overcast
10:53 PM 72.0 °F - 71.1 °F 97% 30.01 in 10.0 mi North 6.9 mph - 0.00 in   Overcast
11:10 PM 72.0 °F - 71.1 °F 97% 30.04 in 10.0 mi NNE 8.1 mph - N/A   Overcast
11:24 PM 72.0 °F - 71.1 °F 97% 30.04 in 10.0 mi North 11.5 mph - N/A   Overcast
11:39 PM 72.0 °F - 70.0 °F 93% 30.05 in 10.0 mi North 8.1 mph - N/A   Overcast
11:53 PM 72.0 °F - 70.0 °F 93% 30.03 in 10.0 mi North 9.2 mph - N/A   Overcast